Date,TemperatureHighF,TemperatureAvgF,TemperatureLowF,DewpointHighF,DewpointAvgF,DewpointLowF,HumidityHigh,HumidityAvg,HumidityLow,PressureMaxIn,PressureMinIn,WindSpeedMaxMPH,WindSpeedAvgMPH,GustSpeedMaxMPH,PrecipitationSumIn
2012-1-1,60.5,42.3,27.8,50.5,36.5,26.8,97,82,43,32.22,20.22,16,2,16,0.02
2012-1-2,50.5,37.9,27.6,32.0,19.1,8.7,66,47,34,32.31,17.16,21,10,26,0.02
2012-1-3,29.8,25.0,20.3,13.2,9.9,6.2,69,53,43,32.24,20.84,19,8,26,0.00
2012-1-4,43.5,25.4,13.8,19.0,14.0,9.6,88,65,33,32.27,20.77,5,1,7,0.00
2012-1-5,56.8,36.1,21.8,33.1,23.7,16.3,90,65,32,32.26,20.67,9,2,12,0.00
2012-1-6,67.6,43.4,26.1,36.3,28.2,22.6,89,60,22,32.32,20.68,5,1,9,0.00
2012-1-7,67.3,47.1,29.5,49.8,38.1,26.3,91,73,50,32.19,19.16,11,2,16,0.00
2012-1-8,56.0,49.4,39.8,50.4,43.5,38.8,98,81,60,32.45,20.45,4,1,7,0.00
2012-1-9,49.7,45.4,43.8,45.1,43.6,42.1,98,94,76,30.27,21.17,3,0,4,0.11
2012-1-10,54.8,47.2,40.2,49.7,45.0,39.7,99,92,72,32.29,22.26,3,1,5,0.01
2012-1-11,54.7,48.1,45.0,54.4,47.2,44.5,99,97,91,31.61,20.17,15,2,15,1.29
2012-1-12,56.8,44.1,32.9,51.2,41.2,32.3,99,91,67,32.17,20.22,11,3,15,0.06
2012-1-13,50.1,32.9,25.8,42.5,20.5,16.2,82,60,47,32.13,20.42,24,9,25,0.06
2012-1-14,45.0,32.3,21.2,26.3,19.0,15.8,83,60,37,32.28,20.83,13,3,17,0.00
2012-1-15,46.6,38.2,29.2,30.9,26.3,22.5,83,63,40,32.36,20.86,10,3,12,0.00
2012-1-16,45.9,32.3,22.4,33.0,26.3,20.2,93,79,58,30.62,22.44,6,1,10,0.00
2012-1-17,62.0,42.6,28.7,53.6,38.9,27.2,96,87,70,32.20,20.71,16,4,22,0.11
2012-1-18,54.9,45.5,33.6,53.2,32.4,23.0,97,62,39,32.40,16.29,15,4,17,0.11
2012-1-19,44.1,33.1,21.2,28.8,24.7,19.0,93,73,49,32.38,20.74,8,1,11,0.00
2012-1-20,52.6,38.4,26.6,40.5,32.2,23.9,96,80,56,32.34,20.77,4,1,8,0.07
2012-1-21,48.9,43.7,41.1,48.4,43.1,40.4,99,98,96,32.19,20.31,5,0,6,0.22
2012-1-22,47.8,40.6,36.4,47.3,38.9,34.6,99,94,84,32.40,20.50,6,2,10,0.00
2012-1-23,40.4,37.2,35.4,39.9,36.7,34.9,98,98,95,32.25,20.48,3,1,6,0.39
2012-1-24,64.1,46.5,37.1,52.9,42.3,36.8,100,88,44,32.26,20.52,5,1,5,0.01
2012-1-25,60.6,43.3,30.1,42.5,35.6,28.8,97,78,44,32.42,17.81,4,1,7,0.01
2012-1-26,57.5,51.4,45.6,55.0,47.6,41.8,98,87,74,32.16,20.30,7,1,9,0.09
2012-1-27,62.5,55.6,42.5,60.1,47.0,33.6,100,74,53,32.38,17.73,20,8,22,0.21
2012-1-28,60.0,40.7,26.6,41.0,32.3,25.4,96,75,47,32.37,19.25,20,4,29,0.00
2012-1-29,51.7,39.0,23.6,26.6,19.6,12.2,85,50,21,32.34,21.19,16,5,20,0.00
2012-1-30,59.0,44.6,27.9,30.0,22.7,15.5,78,44,28,32.40,19.37,12,3,14,0.00
2012-1-31,66.7,44.4,26.4,37.8,29.6,23.7,91,61,31,32.48,20.55,11,2,17,0.00
2012-2-1,62.0,46.2,34.4,52.4,40.2,30.6,98,81,51,32.22,17.16,5,0,6,0.48
2012-2-2,64.7,53.1,41.1,53.7,43.7,34.4,99,75,39,32.49,21.19,17,4,26,0.01
2012-2-3,57.3,43.0,27.4,39.3,31.3,26.1,96,68,35,32.45,19.38,5,1,10,0.01
2012-2-4,49.1,42.1,34.2,47.6,39.8,30.4,97,92,72,32.35,20.71,2,0,4,0.10
2012-2-5,52.3,47.9,42.0,51.8,47.2,40.7,99,98,95,32.19,20.71,7,2,11,0.06
2012-2-6,51.1,41.8,35.7,40.6,36.3,32.6,97,82,61,30.32,20.43,6,2,13,0.00
2012-2-7,57.9,40.0,25.8,37.9,31.2,24.8,97,76,34,30.24,27.53,5,1,6,0.01
2012-2-8,52.4,39.2,29.5,41.5,33.5,28.2,96,82,53,30.20,27.30,14,3,20,0.03
2012-2-9,49.2,39.6,27.5,33.7,29.2,24.1,89,67,50,32.49,19.39,11,3,14,0.03
2012-2-10,45.9,34.0,24.9,37.4,30.4,23.6,96,87,72,32.39,20.49,2,0,3,0.00
2012-2-11,43.4,34.6,22.8,36.7,24.5,3.9,100,69,42,32.28,20.75,23,9,28,0.00
2012-2-12,40.3,27.1,16.4,17.9,9.7,4.0,61,48,36,32.44,20.97,23,8,27,0.00
2012-2-13,49.8,33.1,16.6,26.6,18.0,13.5,89,57,31,32.38,19.40,7,2,9,0.00
2012-2-14,48.7,41.4,35.8,38.8,32.8,24.9,90,72,58,32.25,20.73,9,2,13,0.00
2012-2-15,62.3,42.1,25.6,41.6,31.9,24.6,97,73,34,32.47,20.87,4,1,5,0.00
2012-2-16,54.4,47.7,42.0,50.4,42.6,34.7,97,83,61,32.29,19.39,6,1,8,0.03
2012-2-17,63.9,47.9,34.8,44.3,37.4,29.6,98,73,29,32.47,20.78,9,2,12,0.01
2012-2-18,61.9,47.7,31.2,43.7,36.5,29.0,94,68,40,32.45,19.37,5,1,6,0.01
2012-2-19,50.9,41.5,32.5,46.0,39.2,31.6,100,92,75,31.90,17.36,9,2,15,0.67
2012-2-20,52.0,37.1,27.8,36.6,30.3,21.2,98,80,31,32.44,17.21,5,1,8,0.09
2012-2-21,55.2,37.5,22.8,40.3,31.0,21.3,95,79,54,32.18,19.44,14,3,21,0.01
2012-2-22,64.8,48.1,27.7,48.9,39.9,26.7,97,76,41,32.42,20.74,13,3,23,0.01
2012-2-23,72.8,55.0,42.4,59.4,49.2,41.6,99,83,53,31.88,19.14,16,4,22,0.01
2012-2-24,76.0,64.3,45.4,62.1,52.6,25.0,85,67,35,32.40,19.07,25,11,36,0.19
2012-2-25,48.8,42.1,35.9,26.9,21.9,18.1,53,45,36,32.42,19.27,24,12,29,0.00
2012-2-26,52.2,38.2,23.1,29.5,23.5,18.9,88,58,37,31.47,17.43,10,2,11,0.00
2012-2-27,61.7,42.2,27.6,49.2,34.4,24.6,91,75,53,32.32,17.53,4,1,5,0.00
2012-2-28,66.3,48.3,31.3,45.1,39.1,30.5,98,75,40,32.49,20.56,6,2,7,0.00
2012-2-29,68.6,58.5,52.0,60.1,52.7,42.6,93,81,70,32.16,19.41,14,4,20,0.04
2012-3-1,75.9,64.0,52.6,60.0,44.1,23.9,99,58,17,32.47,17.25,17,6,21,0.01
2012-3-2,53.1,45.4,34.7,47.2,38.4,29.0,93,77,42,32.13,19.15,3,1,5,0.02
2012-3-3,59.6,52.3,48.3,52.3,40.2,18.2,99,69,25,31.89,19.38,14,5,19,0.44
2012-3-4,51.3,44.6,33.4,29.4,23.8,17.4,71,44,29,30.40,17.29,20,10,25,0.44
2012-3-5,46.9,36.9,26.5,32.1,24.6,18.6,91,65,37,32.17,19.43,26,7,35,0.01
2012-3-6,54.4,35.0,22.2,30.8,22.5,18.2,90,63,33,31.88,18.35,9,1,11,0.01
2012-3-7,63.9,48.6,29.8,47.8,38.9,25.8,91,71,52,30.67,20.68,12,2,14,0.00
2012-3-8,67.4,58.0,47.5,55.2,50.7,42.9,92,77,58,27.66,17.58,13,3,16,0.00
2012-3-9,63.7,55.3,41.5,55.3,42.8,27.9,98,67,35,32.26,17.40,13,4,16,0.13
2012-3-10,57.4,44.8,30.1,31.4,26.7,21.7,86,52,27,31.88,19.54,7,2,12,0.13
2012-3-11,61.7,43.8,26.9,38.3,31.4,24.9,93,65,37,30.62,19.69,5,1,9,0.00
2012-3-12,66.4,54.2,43.5,54.9,46.4,36.0,94,76,63,32.37,19.74,9,2,12,0.04
2012-3-13,75.6,61.4,50.6,62.7,56.5,50.1,99,86,52,30.51,17.47,7,1,10,0.03
2012-3-14,80.2,62.2,45.8,59.4,51.5,45.3,100,73,33,31.36,19.18,7,2,14,0.01
2012-3-15,78.9,59.4,44.4,60.1,52.0,43.1,97,78,48,32.49,21.23,17,2,25,0.19
2012-3-16,80.0,62.8,49.6,63.7,55.5,48.8,99,80,42,22.22,17.51,12,2,16,0.05
2012-3-17,77.1,63.8,50.6,61.5,56.5,50.1,99,79,50,32.28,17.45,22,2,22,0.04
2012-3-18,72.6,61.1,50.3,62.6,57.3,49.5,99,88,63,25.11,19.43,5,1,6,0.01
2012-3-19,82.2,64.2,49.1,64.6,56.1,48.6,99,79,40,29.46,16.26,6,1,10,0.01
2012-3-20,81.3,65.7,51.2,65.3,59.1,50.3,98,81,50,31.95,17.50,11,1,14,0.07
2012-3-21,76.2,64.4,53.2,66.0,59.7,52.7,99,86,58,27.78,20.22,6,1,11,0.09
2012-3-22,77.1,64.4,53.3,65.4,59.5,52.5,99,85,60,31.91,17.55,7,1,12,0.00
2012-3-23,76.1,62.5,52.1,66.5,59.2,51.5,99,90,68,32.27,20.62,10,1,16,0.49
2012-3-24,74.6,64.8,59.0,64.8,58.8,48.4,99,84,40,20.07,19.36,11,3,14,0.68
2012-3-25,59.4,53.9,50.3,54.6,51.2,48.2,97,91,71,32.09,18.19,12,3,16,1.19
2012-3-26,74.8,64.1,52.2,54.0,49.9,46.3,94,62,38,31.89,19.56,13,5,15,0.00
2012-3-27,64.7,54.5,38.1,46.6,38.8,30.5,88,57,40,27.75,19.54,6,2,13,0.00
2012-3-28,76.3,57.9,40.5,61.7,49.3,38.8,96,75,50,32.43,19.59,9,2,14,0.00
2012-3-29,80.9,70.0,57.0,61.0,53.2,48.1,89,58,34,27.65,19.35,17,5,20,0.00
2012-3-30,75.4,60.8,47.7,58.8,51.3,45.9,95,73,43,27.66,19.47,15,2,20,0.02
2012-3-31,76.5,64.9,58.3,63.4,56.7,47.0,99,78,40,22.17,17.39,12,3,18,0.16
2012-4-1,73.0,59.4,45.5,59.5,53.2,44.7,99,82,55,32.04,17.35,17,2,17,0.01
2012-4-2,80.9,66.5,55.0,66.2,58.3,52.1,96,76,53,27.69,19.48,11,3,14,0.02
2012-4-3,76.9,63.4,52.2,66.1,58.0,50.4,96,83,63,30.49,19.46,8,2,14,0.00
2012-4-4,83.2,68.4,51.7,65.0,58.1,51.0,99,74,37,30.46,17.47,10,2,14,0.00
2012-4-5,70.3,60.6,49.6,61.9,55.7,48.2,97,85,64,32.38,19.39,7,2,12,0.87
2012-4-6,66.0,53.5,46.0,48.1,44.7,40.3,96,76,40,32.21,19.73,5,1,10,0.26
2012-4-7,69.9,51.1,32.4,44.6,38.9,30.7,100,69,33,31.80,20.37,5,1,10,0.00
2012-4-8,75.4,57.4,40.0,49.8,42.7,38.0,95,64,32,32.34,20.83,16,4,21,0.00
2012-4-9,73.6,61.6,45.3,43.5,35.7,27.5,76,40,19,29.29,19.50,18,7,26,0.00
2012-4-10,69.3,59.7,41.8,45.0,37.0,29.9,84,45,32,31.56,19.46,21,8,29,0.00
2012-4-11,59.8,51.2,41.6,34.5,26.9,21.6,47,39,32,30.65,19.50,16,9,25,0.00
2012-4-12,64.1,46.1,27.7,36.9,28.9,23.5,91,55,27,31.45,20.40,9,2,12,0.00
2012-4-13,65.6,47.4,30.7,42.3,35.2,29.4,96,68,32,31.42,19.75,5,1,10,0.00
2012-4-14,72.6,54.3,38.3,50.6,42.8,35.9,94,69,41,32.44,19.58,8,2,14,0.00
2012-4-15,79.0,61.2,42.3,62.8,52.0,41.0,97,74,53,32.46,19.74,12,3,21,0.00
2012-4-16,82.6,70.1,56.3,64.1,60.1,54.3,96,73,49,32.44,22.34,11,3,17,0.00
2012-4-17,80.6,65.3,53.0,65.8,58.5,52.2,99,81,53,30.57,19.56,14,2,22,0.14
2012-4-18,59.8,54.3,51.1,57.6,52.5,49.7,96,93,88,30.64,19.59,10,2,11,0.82
2012-4-19,66.6,56.5,48.7,58.5,52.7,48.0,98,88,70,30.71,19.71,4,1,7,0.00
2012-4-20,71.3,61.2,55.4,60.1,56.1,54.0,96,84,62,30.54,19.72,5,1,7,0.00
2012-4-21,75.7,62.7,50.4,64.8,57.0,49.9,99,83,58,27.75,19.59,9,2,12,0.12
2012-4-22,61.1,56.2,47.9,59.7,52.8,36.3,96,89,64,22.19,19.42,13,2,16,0.07
2012-4-23,54.2,46.9,40.2,38.0,33.1,25.0,90,60,36,32.30,19.67,18,9,26,0.00
2012-4-24,60.7,51.3,39.0,42.4,30.9,23.5,67,46,29,25.33,19.75,17,7,22,0.00
2012-4-25,68.0,54.7,47.7,56.1,47.9,37.3,95,79,61,30.64,19.52,9,2,11,0.07
2012-4-26,76.7,60.8,49.9,65.3,57.6,49.4,99,90,61,25.06,19.41,12,3,19,0.28
2012-4-27,79.7,68.1,57.6,62.3,58.5,53.0,98,74,41,27.56,19.34,7,2,10,0.00
2012-4-28,63.6,58.6,51.2,57.3,50.3,43.3,93,75,57,25.16,19.58,4,1,7,0.00
2012-4-29,81.5,62.6,46.5,67.6,56.0,45.7,98,81,54,30.70,19.56,3,1,9,0.00
2012-4-30,81.2,69.6,59.7,71.8,65.0,58.8,99,86,63,25.12,19.60,5,1,7,0.00
2012-5-1,83.3,82.3,81.6,69.8,69.4,69.1,66,65,64,0.00,40.00,7,6,7,0.00
2012-5-2,86.6,74.3,58.0,71.4,66.1,57.7,99,78,48,23.57,19.50,4,1,6,0.01
2012-5-3,86.9,71.8,57.5,71.2,64.0,56.9,99,79,45,30.57,19.50,6,1,11,0.01
2012-5-4,83.8,73.2,61.8,70.2,65.0,61.2,99,78,52,30.56,19.70,7,2,11,0.00
2012-5-5,81.2,69.1,59.0,69.3,63.0,58.2,99,82,55,27.91,19.62,12,3,16,0.01
2012-5-6,78.3,69.2,57.1,67.8,62.7,56.2,98,81,62,30.58,19.68,6,1,9,0.01
2012-5-7,75.4,66.9,60.1,67.4,62.5,58.7,97,87,65,31.43,19.58,4,1,7,0.00
2012-5-8,76.5,66.7,61.0,68.8,64.0,59.3,97,91,75,31.58,21.19,7,2,10,0.18
2012-5-9,66.9,63.2,54.8,65.4,60.9,52.8,99,92,77,19.52,19.52,12,1,17,1.21
2012-5-10,71.5,58.0,45.7,54.6,49.4,44.4,98,76,43,30.57,19.46,6,1,9,0.01
2012-5-11,73.1,57.0,41.1,56.2,46.3,40.3,98,72,39,31.41,19.55,5,1,7,0.00
2012-5-12,72.2,59.3,46.1,61.7,53.5,45.3,98,83,55,32.20,19.59,4,1,10,0.00
2012-5-13,65.0,59.0,51.4,62.9,57.6,50.9,99,95,88,25.77,19.76,3,0,4,0.38
2012-5-14,75.5,62.6,58.5,68.3,60.7,57.9,99,94,77,31.55,19.67,3,1,6,2.29
2012-5-15,75.5,66.0,59.0,68.2,63.4,58.7,100,92,75,25.61,19.46,4,1,6,0.01
2012-5-16,80.7,69.1,58.7,67.7,63.8,58.4,99,85,56,31.63,19.54,6,1,7,0.02
2012-5-17,80.4,70.6,56.3,65.5,59.9,55.5,97,72,45,29.67,19.50,4,2,6,0.00
2012-5-18,74.6,67.7,62.7,65.8,61.5,59.0,94,81,63,22.31,19.57,3,1,7,0.00
2012-5-19,74.4,63.6,50.5,62.0,56.2,49.6,98,79,48,28.08,19.66,3,1,7,0.00
2012-5-20,80.8,66.0,50.7,62.7,55.1,50.2,99,73,40,25.67,19.63,4,1,10,0.00
2012-5-21,82.9,68.0,56.5,66.3,59.7,54.7,96,77,50,23.54,19.51,4,1,9,0.00
2012-5-22,78.0,68.6,59.4,68.4,63.9,58.8,99,86,65,27.60,19.46,5,0,8,0.08
2012-5-23,77.1,67.1,61.8,67.1,63.6,61.2,99,89,64,25.09,19.48,5,1,7,0.28
2012-5-24,81.6,69.3,59.8,71.2,64.2,58.9,99,85,58,27.80,19.58,5,1,10,0.01
2012-5-25,86.4,73.6,59.7,71.3,65.8,59.1,99,79,49,25.65,19.60,3,0,5,0.00
2012-5-26,86.9,74.1,61.7,72.4,67.1,61.1,99,81,54,28.62,19.65,3,1,6,0.00
2012-5-27,83.9,74.6,64.2,70.5,67.2,63.6,99,80,56,30.64,19.75,4,1,6,0.00
2012-5-28,84.7,73.3,63.7,72.1,67.5,62.8,99,84,57,25.09,19.72,4,1,7,0.00
2012-5-29,82.5,72.8,64.5,72.5,68.5,63.9,99,87,66,23.54,19.63,8,1,13,0.00
2012-5-31,87.5,75.4,56.6,69.6,62.9,55.3,96,68,39,22.35,19.49,8,2,14,0.00
2012-6-1,79.2,69.7,62.3,68.8,64.2,54.2,96,83,62,22.46,19.51,18,3,18,0.09
2012-6-2,73.4,61.8,47.1,54.7,49.8,46.0,97,68,42,30.59,19.58,9,3,12,0.00
2012-6-3,80.5,64.3,47.1,60.6,52.9,45.5,96,69,41,32.12,19.40,12,4,19,0.00
2012-6-4,81.1,68.3,56.7,63.9,58.4,54.8,96,73,47,32.12,20.50,14,3,16,0.00
2012-6-5,74.5,67.4,59.9,61.3,58.1,55.5,96,73,53,25.11,19.51,6,1,8,0.50
2012-6-6,68.8,61.5,57.6,61.0,58.6,56.8,98,91,73,28.05,19.55,3,1,6,1.66
2012-6-7,78.2,65.5,53.9,65.7,59.1,53.1,100,82,52,27.94,19.71,4,1,6,0.00
2012-6-8,81.7,69.2,55.3,62.0,57.8,52.6,98,71,39,23.60,19.65,3,1,9,0.00
2012-6-9,83.7,69.4,55.1,67.7,60.8,54.2,98,77,51,25.66,19.61,6,1,11,0.00
2012-6-10,76.9,69.1,60.3,67.9,63.9,59.2,97,84,63,27.67,19.60,4,1,5,0.00
2012-6-11,75.4,68.6,64.2,72.6,67.5,63.6,99,96,88,19.77,19.72,5,1,7,0.25
2012-6-12,84.3,74.8,69.6,75.4,71.6,69.3,100,90,70,25.64,19.62,7,1,10,0.03
2012-6-13,84.4,74.6,64.4,72.3,68.0,63.8,100,82,55,0.00,40.00,4,1,7,0.01
2012-6-14,78.3,72.1,64.7,68.0,61.7,55.1,93,71,54,25.92,19.65,4,1,8,0.00
2012-6-15,79.2,71.0,63.4,66.4,62.7,60.2,94,76,57,23.74,19.71,5,1,8,0.00
2012-6-16,78.9,67.9,56.8,65.0,59.3,55.5,100,76,55,27.75,19.69,4,1,6,0.00
2012-6-17,81.0,69.6,59.0,68.1,62.0,57.3,96,78,59,31.77,19.70,3,1,8,0.00
2012-6-18,84.3,73.8,62.4,71.6,66.9,61.5,100,80,59,31.73,19.57,6,1,11,0.00
2012-6-19,87.7,74.6,61.7,73.6,67.2,61.1,99,80,51,31.72,19.61,4,1,7,0.00
2012-6-20,89.9,81.3,68.0,74.0,69.5,66.2,97,70,48,27.62,19.61,3,1,7,0.00
2012-6-21,91.1,79.9,68.8,73.3,70.4,67.6,97,75,48,31.63,19.62,4,1,8,0.00
2012-6-22,88.3,76.1,70.3,73.8,70.1,66.2,94,82,56,31.63,19.47,10,1,11,0.20
2012-6-23,88.1,76.4,67.0,72.6,69.2,66.1,98,81,55,31.69,19.53,14,1,14,0.03
2012-6-24,88.4,80.1,68.3,75.7,72.7,68.0,99,79,61,29.68,19.51,6,2,8,0.12
2012-6-25,91.1,36.3,82.9,73.3,-30.2,-99.9,68,22,48,31.68,21.36,3,-589,8,0.01
2012-6-26,80.2,17.1,74.9,60.2,-65.6,-99.9,57,11,44,32.03,19.44,4,-781,7,0.00
2012-6-27,84.7,31.4,76.9,66.0,-39.2,-99.9,61,17,39,31.98,19.17,4,-615,7,0.00
2012-6-28,93.6,39.8,76.3,69.1,-25.4,-99.9,75,21,36,30.40,19.52,8,-548,12,0.00
2012-6-29,98.3,81.9,63.6,75.1,68.5,61.9,95,68,38,30.46,19.51,6,1,9,0.00
2012-6-30,99.4,83.5,69.0,77.6,71.2,66.5,93,69,38,27.81,22.20,5,1,9,0.00
2012-7-1,99.8,81.9,69.9,77.8,72.5,68.4,98,77,37,25.50,19.49,6,1,13,0.38
2012-7-2,77.5,74.8,72.8,72.9,70.8,67.5,92,88,79,30.45,19.58,2,0,5,0.00
2012-7-3,91.6,89.6,79.5,76.0,64.3,-99.9,73,55,54,22.27,19.39,10,3,11,0.02
2012-7-4,91.9,84.3,75.2,75.6,72.7,67.6,92,69,50,27.86,19.45,14,3,20,0.00
2012-7-5,94.7,77.5,69.5,77.9,71.1,65.9,97,83,46,25.01,19.51,11,3,15,0.02
2012-7-6,93.7,78.6,64.9,77.0,69.6,63.7,97,77,51,30.47,19.49,4,1,7,0.01
2012-7-7,96.2,81.6,69.2,77.7,72.2,67.2,96,76,40,30.50,19.56,6,2,10,0.00
2012-7-8,98.3,83.3,71.0,79.9,74.1,67.2,98,77,37,29.54,19.56,6,1,11,0.00
2012-7-9,93.1,79.9,70.9,75.4,72.3,67.9,98,80,50,29.51,19.55,10,2,14,0.00
2012-7-10,81.4,76.2,71.0,74.3,71.1,69.5,95,84,78,30.50,19.44,5,3,12,0.27
2012-7-11,75.2,70.5,67.9,71.2,69.0,67.0,99,95,82,31.48,19.53,5,1,9,0.18
2012-7-12,72.7,68.1,65.7,69.6,66.2,63.3,97,94,87,31.55,21.35,4,0,5,0.02
2012-7-13,78.4,74.6,69.8,74.9,72.3,68.7,97,93,88,25.63,19.52,3,1,11,0.44
2012-7-14,87.1,76.5,69.9,76.5,72.2,69.0,99,88,63,31.57,19.60,7,1,11,0.80
2012-7-15,86.5,76.7,67.9,76.8,72.4,67.3,99,87,68,31.55,19.66,9,1,12,0.00
2012-7-16,89.6,75.4,68.3,77.5,71.7,68.0,99,90,59,31.50,19.57,7,1,10,0.01
2012-7-17,91.9,84.4,68.2,77.5,73.8,67.6,99,72,53,31.62,19.48,7,1,11,0.00
2012-7-18,91.7,77.6,69.1,77.7,71.7,68.5,98,84,53,29.62,19.54,7,1,8,0.00
2012-7-19,89.5,85.4,78.0,77.2,75.0,69.7,87,71,58,31.62,19.43,12,3,15,0.01
2012-7-20,85.9,75.5,68.3,75.3,71.4,67.7,99,88,65,29.54,19.49,9,2,11,0.01
2012-7-21,87.5,76.2,68.4,78.6,72.4,68.1,99,89,66,27.62,19.49,14,1,14,0.51
2012-7-22,86.1,74.8,69.8,79.0,72.7,69.2,100,94,76,21.56,19.54,5,1,14,0.04
2012-7-23,89.9,79.9,71.1,77.4,74.2,70.9,100,84,59,27.67,19.59,9,2,13,0.31
2012-7-24,89.9,77.9,70.3,79.6,72.8,69.0,98,85,61,31.52,19.53,8,2,10,0.02
2012-7-25,88.8,77.9,69.0,79.2,73.1,67.9,98,86,64,31.64,19.53,7,1,11,0.38
2012-7-26,92.6,82.2,70.8,77.7,75.0,70.5,100,81,57,31.58,19.41,8,2,11,0.01
2012-7-27,91.8,80.6,71.0,77.7,73.9,70.4,99,82,53,31.61,19.46,9,2,15,0.00
2012-7-28,91.6,78.7,66.8,75.3,70.3,65.7,99,78,49,27.64,19.48,7,2,11,0.01
2012-7-29,88.6,77.2,64.1,71.5,67.2,63.2,98,74,44,31.55,19.57,4,1,6,0.00
2012-7-30,89.1,76.6,67.1,74.2,69.1,65.7,98,80,50,31.70,19.53,3,1,6,0.00
2012-7-31,79.6,72.7,65.1,73.5,69.8,64.5,99,91,79,29.66,19.57,4,1,5,0.03
2012-8-1,90.8,77.0,67.4,75.1,70.0,67.0,99,82,49,29.68,19.50,5,1,7,0.01
2012-8-2,91.9,78.7,63.8,75.7,70.3,62.8,98,78,49,31.64,19.48,10,2,14,0.00
2012-8-3,87.5,77.4,69.4,77.1,72.8,68.7,98,87,66,31.56,19.53,5,1,7,0.00
2012-8-4,84.3,76.7,70.4,77.0,72.7,68.0,99,88,71,29.66,19.48,11,1,13,0.24
2012-8-5,87.7,79.2,68.3,76.7,73.0,68.0,100,83,62,31.69,21.47,6,2,9,0.10
2012-8-6,86.3,75.3,70.7,76.3,72.6,70.4,99,92,66,30.02,19.45,5,1,7,0.01
2012-8-7,85.3,75.2,70.8,76.5,72.5,69.9,99,92,70,32.35,22.35,5,1,5,0.18
2012-8-8,88.9,74.9,69.6,77.5,71.8,68.7,100,91,61,32.34,18.67,6,1,9,0.04
2012-8-9,84.6,73.5,66.9,76.6,70.6,66.3,100,91,73,32.32,18.69,6,1,8,0.12
2012-8-10,83.2,73.5,66.5,74.5,69.8,66.2,99,89,69,32.20,18.05,6,2,8,0.04
2012-8-11,80.7,72.8,68.3,74.2,70.4,67.5,99,92,76,32.17,21.87,3,1,5,0.20
2012-8-12,85.8,73.3,61.9,71.1,66.2,61.3,99,81,50,32.30,20.43,4,1,5,0.01
2012-8-13,85.7,72.9,60.7,72.7,66.4,60.2,99,82,51,32.03,18.05,5,1,8,0.00
2012-8-14,86.6,73.6,64.9,72.7,68.5,64.2,99,86,58,29.46,24.34,9,2,11,0.06
2012-8-15,84.4,72.7,65.9,73.8,68.1,60.8,100,87,61,32.11,22.01,11,2,13,0.26
2012-8-16,86.1,71.2,57.3,71.2,61.8,56.7,99,76,43,32.11,18.09,3,1,5,0.01
2012-8-17,84.8,70.2,60.4,72.4,66.7,59.8,99,90,61,29.50,21.97,10,1,13,0.37
2012-8-18,80.2,71.3,64.2,70.5,67.2,63.9,100,88,61,29.46,17.91,3,0,6,0.01
2012-8-19,80.1,71.3,66.2,70.4,67.7,64.7,99,90,64,31.13,21.80,6,1,9,0.40
2012-8-20,82.1,70.2,63.9,69.7,65.0,62.1,99,85,52,24.26,21.80,6,1,9,0.02
2012-8-21,83.4,70.9,59.0,68.1,63.1,58.4,99,79,47,22.07,18.03,4,0,5,0.00
2012-8-22,81.5,70.3,60.8,70.3,64.7,59.9,98,84,63,24.91,20.52,4,1,5,0.00
2012-8-23,82.8,71.1,60.9,69.9,65.3,60.3,99,83,61,28.24,18.22,3,1,8,0.00
2012-8-24,82.7,71.1,60.9,70.2,64.8,60.3,99,83,53,28.24,22.24,5,1,10,0.00
2012-8-25,83.9,70.1,59.0,65.7,62.2,58.4,99,79,51,22.24,22.23,4,1,7,0.01
2012-8-26,86.1,70.8,57.9,69.8,64.2,57.3,99,82,52,22.23,22.20,3,1,5,0.00
2012-8-27,85.9,73.0,61.5,71.8,66.4,60.9,99,82,50,22.20,22.20,0,0,0,0.00
2012-8-28,88.7,74.2,62.4,74.7,68.1,61.9,99,83,51,24.75,-32.77,5,1,7,0.00
2012-8-29,87.0,76.7,70.2,73.6,70.8,67.5,100,84,55,24.77,20.28,1,0,4,0.01
2012-8-30,85.4,75.2,68.3,76.3,72.0,68.0,100,91,69,22.20,18.08,6,1,11,0.00
2012-8-31,92.2,77.3,68.0,76.8,72.6,67.7,100,87,53,22.26,22.13,5,0,7,0.01
2012-9-1,90.7,77.3,70.3,75.6,72.2,69.4,98,86,56,22.16,22.15,7,1,10,0.00
2012-9-2,88.6,78.8,69.5,76.5,73.3,69.2,100,84,59,22.09,22.09,11,1,11,0.00
2012-9-3,85.2,74.8,71.3,76.8,72.6,70.1,98,93,69,22.09,21.93,7,1,9,0.09
2012-9-4,77.8,73.5,70.7,75.0,72.3,69.8,99,96,85,22.01,21.89,5,1,7,0.41
2012-9-5,86.2,74.4,68.7,77.3,72.0,68.4,100,93,72,21.91,21.88,7,1,12,0.00
2012-9-7,87.5,82.4,71.6,73.3,70.8,68.7,94,69,56,21.83,21.78,3,1,4,0.00
2012-9-8,85.5,71.6,65.1,75.9,67.8,59.8,100,89,61,21.78,21.78,14,1,16,0.14
2012-9-9,78.0,66.9,54.7,64.0,57.3,52.8,97,74,43,32.25,21.78,8,2,12,0.00
2012-9-10,79.7,62.6,51.9,61.9,55.5,51.2,99,81,44,21.97,21.97,5,1,8,0.01
2012-9-11,74.6,68.4,62.3,62.7,61.4,60.1,93,79,66,22.11,22.11,2,0,3,0.00
2012-9-12,79.6,67.2,55.7,64.9,60.5,55.1,99,81,54,22.11,22.11,4,1,8,0.00
2012-9-13,77.3,63.8,50.4,61.6,56.5,49.8,99,80,48,17.40,17.40,3,1,7,0.00
2012-9-14,82.6,66.0,54.9,64.0,58.9,54.3,99,81,46,22.12,17.40,5,1,7,0.01
2012-9-15,83.4,69.4,56.6,67.2,61.9,56.0,99,80,47,22.13,22.13,5,1,7,0.01
2012-9-16,69.9,66.1,64.1,66.7,65.1,63.5,99,97,88,22.13,22.13,9,1,14,0.41
2012-9-17,68.5,65.1,62.9,68.1,64.9,62.6,100,99,98,22.13,22.13,6,0,6,1.06
2012-9-18,72.0,69.1,65.2,70.2,67.9,64.2,99,96,90,22.13,22.13,12,4,22,1.27
2012-9-19,73.3,64.4,55.2,63.9,58.1,54.6,99,82,58,22.13,22.13,4,1,6,0.00
2012-9-20,75.3,65.1,58.0,64.1,60.0,57.1,97,85,63,22.14,22.13,4,0,6,0.00
2012-9-21,79.9,65.7,55.8,66.4,60.2,55.2,100,85,50,22.14,21.85,6,1,8,0.00
2012-9-22,80.4,61.1,56.6,68.9,59.3,56.2,99,95,60,21.85,21.85,9,0,9,0.01
2012-9-23,75.8,69.4,54.4,54.9,47.4,39.3,85,47,28,32.41,21.84,8,2,9,0.00
2012-9-24,70.3,55.6,41.1,50.4,45.2,40.2,98,72,40,22.12,17.11,3,0,8,0.00
2012-9-25,75.6,56.5,41.7,63.2,51.7,40.9,99,86,62,22.16,22.10,4,0,5,0.01
2012-9-26,81.0,65.2,52.9,67.7,60.1,52.4,99,85,60,22.16,22.16,3,0,6,0.00
2012-9-27,83.4,66.2,53.1,66.8,60.3,52.6,99,84,49,22.16,22.16,4,1,5,0.01
2012-9-28,83.8,66.3,59.0,68.5,63.1,58.4,99,91,56,22.16,22.16,7,1,10,0.20
2012-9-29,68.5,64.7,61.9,67.0,64.3,61.3,100,98,93,22.16,22.16,3,0,6,0.56
2012-9-30,71.5,61.3,53.5,61.5,57.3,52.0,100,88,58,22.16,22.16,4,1,6,0.01
2012-10-1,60.2,58.8,57.6,58.9,58.1,56.8,99,98,94,22.16,22.16,3,1,8,0.30
2012-10-2,79.6,66.5,58.6,73.9,63.8,58.3,100,92,69,22.16,22.16,8,2,13,0.85
2012-10-3,74.7,66.7,60.8,67.1,63.5,60.2,100,90,68,22.16,22.16,0,0,0,0.00
2012-10-4,79.9,67.2,59.0,66.1,61.6,57.1,99,84,53,0.00,-32.77,4,0,5,0.00
2012-10-5,78.1,63.1,51.3,62.7,57.0,50.8,99,83,54,0.00,-32.77,5,1,7,0.01
2012-10-6,78.3,63.5,51.1,65.2,58.3,50.6,99,85,56,0.00,-32.77,8,1,12,0.01
2012-10-7,63.9,56.9,48.9,60.2,54.3,47.8,96,91,79,31.82,-32.77,8,0,10,0.33
2012-10-8,49.8,48.1,46.9,47.8,44.9,43.2,97,89,80,31.82,21.42,3,0,7,0.00
2012-10-9,58.2,50.4,45.8,51.6,48.0,45.1,98,92,76,17.89,17.89,5,1,6,0.01
2012-10-10,68.7,60.0,49.4,55.9,51.7,48.6,97,76,56,17.89,17.89,12,4,19,0.00
2012-10-11,65.8,53.4,37.7,51.1,45.4,36.6,97,76,54,17.89,17.89,11,2,13,0.00
2012-10-12,73.1,55.0,41.4,58.6,48.8,40.9,99,82,53,17.89,17.89,6,1,7,0.01
2012-10-13,64.9,52.9,41.9,49.9,45.3,39.9,98,77,55,31.32,17.89,4,1,6,0.00
2012-10-14,66.1,54.0,43.6,61.1,51.4,42.8,98,92,75,31.82,31.32,5,0,9,0.01
2012-10-15,73.5,62.9,55.4,65.6,55.5,43.2,99,80,40,31.82,31.82,15,4,21,0.90
2012-10-16,69.5,56.4,42.4,49.9,45.9,41.2,97,70,44,31.82,31.82,10,2,13,0.00
2012-10-17,70.0,58.1,46.8,51.4,49.2,45.7,97,75,50,32.21,16.11,7,2,8,0.00
2012-10-18,67.3,55.8,45.6,61.0,53.4,44.3,98,92,77,32.21,32.21,4,0,6,0.00
2012-10-19,69.5,57.4,45.0,55.9,47.0,37.7,99,74,34,32.21,32.21,8,2,14,0.01
2012-10-20,67.6,53.3,39.8,48.9,42.9,38.8,97,71,44,32.21,31.73,10,2,12,0.00
2012-10-21,69.4,51.3,36.3,50.7,43.8,35.5,100,79,44,31.74,31.74,4,0,7,0.00
2012-10-22,75.8,55.7,40.9,56.0,48.4,40.4,98,80,46,31.74,31.74,4,1,6,0.01
2012-10-23,79.6,58.5,44.3,61.9,51.7,43.6,99,81,39,17.99,17.99,4,0,6,0.00
2012-10-24,79.1,59.9,44.8,60.6,52.7,44.3,99,80,42,17.99,17.99,4,0,6,0.01
2012-10-25,75.6,59.0,43.6,61.6,53.3,43.1,99,84,55,17.99,17.99,4,0,7,0.00
2012-10-26,76.3,63.1,52.9,64.0,57.5,52.1,100,84,60,32.29,17.99,4,1,7,0.00
2012-10-27,71.5,61.7,54.6,61.1,56.9,53.0,98,85,62,32.29,32.29,8,1,11,0.01
2012-10-28,67.4,55.7,47.2,53.9,48.2,36.8,94,77,57,32.47,31.55,16,4,27,0.00
2012-10-29,50.2,45.8,43.4,37.0,33.1,31.0,68,61,54,32.47,32.47,27,11,36,0.00
2012-10-30,45.2,43.1,41.0,34.0,31.9,29.0,73,64,58,32.47,32.47,25,11,33,0.00
2012-10-31,52.9,45.2,35.5,39.0,35.0,31.9,89,68,54,32.47,31.51,27,7,31,0.00
2012-11-1,57.3,49.0,44.1,38.4,32.8,26.0,68,54,34,31.51,31.51,16,7,24,0.00
2012-11-2,64.3,47.6,32.4,44.0,34.8,26.0,86,64,37,32.28,31.51,13,3,20,0.00
2012-11-3,68.9,48.3,31.8,41.1,35.3,29.0,93,66,29,32.28,32.18,6,1,8,0.00
2012-11-4,59.6,50.7,40.0,46.5,41.4,36.3,90,71,54,16.72,16.71,9,1,14,0.00
2012-11-5,58.1,46.3,32.3,45.1,38.5,31.0,97,77,43,31.92,16.60,6,1,8,0.00
2012-11-6,40.9,37.5,33.2,37.0,34.0,30.7,94,87,74,31.92,31.92,5,1,9,0.04
2012-11-7,51.9,38.9,29.4,42.0,34.9,28.0,97,86,66,31.92,31.92,7,2,11,0.01
2012-11-8,60.5,47.4,36.4,38.2,32.7,26.0,89,61,29,31.92,31.92,17,4,19,0.01
2012-11-9,68.7,44.2,27.3,39.0,31.9,25.6,95,68,29,31.92,31.92,5,1,10,0.00
2012-11-10,71.9,48.1,30.2,44.0,35.6,28.6,100,68,30,31.92,31.92,6,1,11,0.00
2012-11-11,69.7,49.0,30.9,51.1,40.2,29.5,96,74,43,31.92,31.92,11,2,17,0.00
2012-11-12,67.0,59.3,51.5,61.5,56.2,47.5,97,90,79,0.00,-32.77,9,1,13,0.06
2012-11-13,62.8,52.3,41.6,60.4,41.8,28.8,97,71,36,0.00,-32.77,9,3,14,0.05
2012-11-14,49.4,37.9,26.7,36.2,30.0,25.0,95,75,51,0.00,-32.77,9,1,13,0.00
2012-11-15,49.6,39.7,31.6,35.0,31.7,28.5,89,73,55,24.08,17.01,7,1,10,0.00
2012-11-16,58.1,38.3,25.2,39.0,30.5,24.0,96,77,38,24.08,24.08,6,1,8,0.00
2012-11-17,57.6,39.9,25.7,37.5,28.9,24.5,96,70,36,24.08,24.08,9,1,16,0.01
2012-11-18,56.2,45.8,31.3,44.5,36.0,25.9,88,69,59,24.08,24.08,9,2,13,0.00
2012-11-19,59.2,50.9,43.5,49.6,43.8,37.7,94,77,69,24.08,24.08,9,2,12,0.00
2012-11-20,61.1,44.8,34.8,47.0,40.4,34.0,98,86,57,24.08,24.08,4,0,7,0.00
2012-11-21,63.7,44.4,29.1,46.0,36.1,28.0,98,77,38,32.19,24.08,5,1,7,0.01
2012-11-22,64.3,43.2,27.6,40.0,33.5,26.0,96,73,36,32.37,31.94,5,1,9,0.01
2012-11-23,68.7,45.6,27.9,49.1,35.5,26.7,96,73,30,32.30,21.66,21,3,27,0.00
2012-11-24,52.8,43.4,32.5,35.6,25.8,18.5,67,50,33,32.14,21.66,16,6,25,0.00
2012-11-25,54.5,34.8,20.6,27.6,22.7,18.0,92,65,32,32.05,32.01,6,1,10,0.00
2012-11-26,64.1,42.2,24.4,34.1,27.6,21.8,91,62,30,32.01,32.01,8,1,10,0.00
2012-11-27,52.2,46.0,41.6,46.4,41.2,30.5,96,84,63,32.25,32.01,3,0,4,0.03
2012-11-28,55.4,45.0,34.4,42.0,34.6,25.0,95,71,37,32.40,21.54,7,1,10,0.03
2012-11-29,56.4,36.5,22.3,38.3,28.4,20.0,94,75,46,16.24,16.24,5,1,8,0.00
2012-11-30,62.5,39.6,24.7,40.8,32.7,23.0,96,80,42,32.30,16.24,5,0,7,0.00
2012-12-1,64.1,44.2,29.5,47.1,37.9,28.3,97,81,50,32.39,32.30,5,1,8,0.01
2012-12-2,69.2,49.8,34.9,53.3,43.7,34.0,97,82,55,32.47,32.32,13,2,18,0.01
2012-12-3,72.9,54.0,42.4,55.0,47.3,41.0,98,81,50,32.40,16.54,6,1,11,0.00
2012-12-4,72.2,53.2,37.2,54.6,46.1,36.0,99,80,46,32.33,16.08,10,2,13,0.00
2012-12-5,62.3,55.4,44.3,58.5,51.7,43.0,97,88,71,32.29,32.28,4,0,7,0.04
2012-12-6,48.7,41.7,31.5,42.8,37.4,30.5,98,86,68,32.28,32.28,6,1,11,0.01
2012-12-7,53.0,46.6,40.1,46.5,42.3,38.8,95,85,76,32.28,32.28,4,0,6,0.00
2012-12-8,67.7,44.6,36.8,56.0,42.6,36.0,99,94,65,32.28,20.59,5,1,9,0.01
2012-12-9,66.0,53.8,44.8,61.0,52.5,44.0,100,95,77,31.97,20.58,4,1,11,0.02
2012-12-10,62.4,56.0,50.9,59.0,55.1,50.0,99,97,88,31.96,31.73,7,1,12,0.07
2012-12-11,57.6,50.2,41.8,57.0,42.4,34.0,99,75,56,31.73,31.73,9,2,14,0.01
2012-12-12,46.5,41.5,36.8,36.0,34.8,34.0,91,78,65,31.73,31.73,8,2,11,0.00
2012-12-13,51.4,43.1,31.4,33.0,27.8,23.0,73,56,34,31.73,31.73,9,2,12,0.00
2012-12-14,57.8,36.0,21.2,35.0,26.7,19.0,94,72,39,31.73,31.73,5,1,8,0.00
2012-12-15,56.1,42.2,32.0,38.0,33.4,28.0,92,73,47,31.73,31.73,7,1,9,0.00
2012-12-16,48.3,45.7,42.9,47.0,42.9,37.0,97,90,75,31.73,31.73,4,1,7,0.26
2012-12-17,53.0,52.7,52.3,52.7,52.4,52.0,99,99,99,0.00,-32.77,2,0,3,0.00
2012-12-18,55.9,50.0,35.1,52.8,41.4,29.5,99,76,43,26.73,-32.77,16,5,24,0.01
2012-12-19,64.9,47.5,32.1,44.0,35.5,27.9,87,65,40,26.73,21.71,8,2,13,0.00
2012-12-20,47.8,39.9,32.0,42.2,37.7,31.0,97,92,76,21.90,21.71,8,1,13,0.86
2012-12-21,43.2,38.5,35.4,43.0,28.2,22.0,98,67,50,31.69,21.90,22,12,38,0.00
2012-12-22,55.5,39.7,30.7,23.0,18.3,11.9,59,44,22,32.30,21.75,24,9,38,0.00
2012-12-23,55.9,36.3,21.2,31.7,22.0,14.0,88,60,27,16.90,16.90,5,1,8,0.00
2012-12-24,45.8,41.6,39.6,42.2,38.7,30.1,98,90,56,16.90,16.90,4,0,8,0.78
2012-12-25,46.5,41.9,39.2,45.0,41.4,38.9,99,98,92,16.90,16.90,5,1,8,0.00
2012-12-26,45.0,40.9,36.7,44.0,39.9,35.0,98,96,83,0.00,0.00,16,4,24,2.13
2012-12-27,47.5,38.7,31.6,34.0,30.0,27.0,85,71,56,32.09,0.00,16,5,21,0.00
2012-12-28,41.2,32.4,24.4,33.0,28.2,23.0,96,85,67,32.02,32.02,4,1,7,0.00
2012-12-29,49.5,37.3,33.0,42.0,32.7,27.0,98,85,57,32.46,31.62,20,4,24,0.23
2012-12-30,46.9,37.1,27.9,26.0,22.0,19.0,72,55,36,32.46,32.46,27,7,29,0.00
2012-12-31,49.3,34.4,23.6,33.0,26.1,20.0,91,73,49,0.00,0.00,4,0,5,0.00
2013-1-1,45.8,40.6,33.7,45.0,38.5,29.0,98,92,77,0.00,0.00,5,1,6,0.29